FENGYUN 1C DEB

Satellite information

Favourite Embed

Satellite Type and Status

DEBRISIN ORBIT

Key statistics

Satellite FENGYUN 1C DEB at a glance.

Uptime

9714

Days in orbit

Revolutions

≈ 14.4

Per day

Orbit

SSO

Sun Synchronous Orbit

Inclination

98.8

Latest

Satellite identification and parameters

Extended collection of information and parameters for FENGYUN 1C DEB.

Object identification

Identified? True

Debris? True

Object name: FENGYUN 1C DEB

International designator: 1999-025BCK

Object number (NORAD): 30993

Object ID (CCSDS): 30993

Country: PEOPLES REPUBLIC OF CHINA (PRC)

Current information (Y/N): Y

RCS size: SMALL

Orbital parameters

Period: 100.319 minutes

Inclination: 98.8458 deg

SMA: 7151.821 km

Apoapsis: 785.367 km

Periapsis: 762.005 km

RAAN: 78.6386 deg

Eccentricy: 0.0016333

Argument of periapsis: 15.7882 deg

Mean anomaly: 13.8175 deg

Mean motion: 14.35416037 rev/day

Mean motion (dot): 0.00008552 rev/day2

B* drag term: 0.0029863601 1/REarth

Two-line elements (TLE)

Creation date: Dec. 12, 2025, 10:14 a.m.

Reference frame: TEME

Reference center: EARTH

Epoch: Dec. 12, 2025, 5:04 a.m. UTC

TLE line 0: 0 FENGYUN 1C DEB

TLE line 1: 1 30993U 99025BCK 25346.21173163 .00008552 00000-0 29864-2 0 9994

TLE line 2: 2 30993 98.8458 78.6386 0016333 15.7882 13.8175 14.35416037969129

Live tracking on map

Real-time ground track for satellite FENGYUN 1C DEB.

In-orbit conjunctions

A list of the most updated potential collisions computed for object FENGYUN 1C DEB.

Target Orbit TCA Probability of collision Miss distance Type
CZ-6A DEB LEO 2025-08-04 10:06:21 0.0001205362 304.0 (m) DEBRIS
FENGYUN 1C DEB SSO 2025-07-14 02:13:36 0.0001926087 397.0 (m) DEBRIS
CZ-6A DEB LEO 2025-02-12 19:18:03 0.000103131 384.0 (m) DEBRIS
CZ-6A DEB LEO 2025-01-14 16:15:20 0.0003489352 133.0 (m) DEBRIS

Associated space launch

Chinese polar orbiting meteorological satellite

FENGYUN 1C DEB was lifted into orbit during the mission ‘Long March 4B | Feng Yun 1C’, on board a Long March 4B space rocket.

The launch took place on May 10, 1999, 1:33 a.m. from Launch Complex 7.

For more information about the launch, click the button.

Launch to space Long March 4B | Feng Yun 1C
Long March 4B | Feng Yun 1C

Agency: N/A

Status: Launch Successful

Launch date: May 10, 1999, 1:33 a.m. UTC

Rocket: Long March 4B

Launch pad: Launch Complex 7

Location: Taiyuan Satellite Launch Center, People's Republic of China

...

Latest news about this satellite

There are no fresh news available about this satellite. Check back as we update our databases every day.


Newsletter sign-up

Weekly statistics, charts and insights to help you stay on top of the space industry.